TimeCDT,TemperatureF,Dew PointF,Humidity,Sea Level PressureIn,VisibilityMPH,Wind Direction,Wind SpeedMPH,Gust SpeedMPH,PrecipitationIn,Events,Conditions,WindDirDegrees,DateUTC
12:15 AM,61.2,56.3,84,29.99,10.0,ENE,4.6,-,N/A,,Clear,60,2013-07-24 05:15:00
12:35 AM,60.4,56.3,86,29.98,10.0,NE,5.8,-,N/A,,Clear,50,2013-07-24 05:35:00
12:55 AM,59.9,56.5,88,29.99,10.0,NE,6.9,-,N/A,,Clear,40,2013-07-24 05:55:00
1:15 AM,59.9,56.7,89,29.99,10.0,NE,5.8,-,N/A,,Clear,40,2013-07-24 06:15:00
1:35 AM,59.4,56.3,90,29.99,10.0,NE,6.9,-,N/A,,Clear,40,2013-07-24 06:35:00
1:55 AM,59.0,55.4,88,30.00,10.0,NE,8.1,-,N/A,,Clear,40,2013-07-24 06:55:00
2:15 AM,58.5,55.0,88,30.00,10.0,NE,5.8,-,N/A,,Clear,50,2013-07-24 07:15:00
2:35 AM,58.1,54.7,88,30.00,10.0,NNE,5.8,-,N/A,,Clear,30,2013-07-24 07:35:00
2:55 AM,58.3,55.0,89,30.00,10.0,NNE,6.9,-,N/A,,Clear,30,2013-07-24 07:55:00
3:15 AM,58.1,54.5,88,30.00,10.0,NE,6.9,-,N/A,,Clear,40,2013-07-24 08:15:00
3:35 AM,57.6,54.5,90,30.00,10.0,NNE,5.8,-,N/A,,Clear,20,2013-07-24 08:35:00
3:55 AM,57.4,54.3,90,30.00,10.0,NNE,5.8,-,N/A,,Clear,30,2013-07-24 08:55:00
4:15 AM,57.4,54.5,90,30.01,10.0,Calm,Calm,-,N/A,,Clear,0,2013-07-24 09:15:00
4:35 AM,56.3,53.2,89,30.02,10.0,Calm,Calm,-,N/A,,Clear,0,2013-07-24 09:35:00
4:55 AM,56.3,53.2,89,30.02,10.0,Calm,Calm,-,N/A,,Clear,0,2013-07-24 09:55:00
5:15 AM,55.4,52.7,91,30.02,10.0,NE,5.8,-,N/A,,Clear,40,2013-07-24 10:15:00
5:35 AM,55.4,52.7,91,30.03,10.0,NE,5.8,-,N/A,,Clear,40,2013-07-24 10:35:00
5:55 AM,56.3,53.1,89,30.04,10.0,NNE,4.6,-,N/A,,Clear,30,2013-07-24 10:55:00
6:15 AM,56.3,53.2,89,30.04,10.0,Calm,Calm,-,N/A,,Clear,0,2013-07-24 11:15:00
6:35 AM,57.0,53.6,88,30.04,10.0,Calm,Calm,-,N/A,,Clear,0,2013-07-24 11:35:00
6:55 AM,58.1,54.3,87,30.04,10.0,NNE,5.8,-,N/A,,Clear,20,2013-07-24 11:55:00
7:15 AM,59.5,55.4,86,30.05,10.0,NNE,5.8,-,N/A,,Clear,20,2013-07-24 12:15:00
7:35 AM,60.3,55.8,85,30.05,10.0,NNE,4.6,-,N/A,,Clear,20,2013-07-24 12:35:00
7:55 AM,62.1,55.9,80,30.05,10.0,NE,6.9,-,N/A,,Clear,40,2013-07-24 12:55:00
8:15 AM,63.1,53.2,70,30.05,10.0,ENE,10.4,-,N/A,,Clear,60,2013-07-24 13:15:00
8:35 AM,64.0,53.6,69,30.06,10.0,NE,8.1,-,N/A,,Clear,40,2013-07-24 13:35:00
8:55 AM,64.9,52.5,64,30.05,10.0,NE,10.4,-,N/A,,Clear,50,2013-07-24 13:55:00
9:15 AM,65.7,52.9,63,30.05,10.0,ENE,9.2,17.3,N/A,,Clear,60,2013-07-24 14:15:00
9:35 AM,66.0,51.6,60,30.05,10.0,NE,12.7,-,N/A,,Clear,40,2013-07-24 14:35:00
9:55 AM,66.9,51.6,58,30.05,10.0,ENE,12.7,-,N/A,,Clear,70,2013-07-24 14:55:00
10:15 AM,67.1,51.1,56,30.05,10.0,NE,11.5,16.1,N/A,,Clear,50,2013-07-24 15:15:00
10:35 AM,68.2,51.6,55,30.05,10.0,ENE,12.7,-,N/A,,Clear,70,2013-07-24 15:35:00
10:55 AM,68.4,51.8,55,30.06,10.0,NNE,9.2,-,N/A,,Scattered Clouds,30,2013-07-24 15:55:00
11:15 AM,69.1,50.9,52,30.07,10.0,NNE,9.2,-,N/A,,Clear,30,2013-07-24 16:15:00
11:35 AM,70.0,51.4,52,30.07,10.0,NNE,9.2,16.1,N/A,,Clear,30,2013-07-24 16:35:00
11:55 AM,69.8,51.6,52,30.07,10.0,NNE,8.1,-,N/A,,Clear,30,2013-07-24 16:55:00
12:15 PM,70.5,52.2,52,30.07,10.0,NNE,10.4,-,N/A,,Scattered Clouds,30,2013-07-24 17:15:00
12:35 PM,71.4,52.3,51,30.07,10.0,NE,8.1,-,N/A,,Scattered Clouds,50,2013-07-24 17:35:00
12:55 PM,71.4,51.8,50,30.06,10.0,North,6.9,-,N/A,,Scattered Clouds,10,2013-07-24 17:55:00
1:15 PM,72.0,52.7,51,30.06,10.0,NNE,9.2,-,N/A,,Scattered Clouds,30,2013-07-24 18:15:00
1:35 PM,72.5,52.2,49,30.06,10.0,NNE,12.7,16.1,N/A,,Scattered Clouds,30,2013-07-24 18:35:00
1:55 PM,72.7,51.6,47,30.05,10.0,NNE,5.8,-,N/A,,Scattered Clouds,30,2013-07-24 18:55:00
2:15 PM,72.9,51.4,47,30.05,10.0,North,10.4,-,N/A,,Scattered Clouds,10,2013-07-24 19:15:00
2:35 PM,73.0,50.4,45,30.05,10.0,NNE,10.4,-,N/A,,Clear,30,2013-07-24 19:35:00
2:55 PM,73.4,51.8,47,30.05,10.0,North,6.9,-,N/A,,Scattered Clouds,350,2013-07-24 19:55:00
3:15 PM,75.2,52.7,45,30.04,10.0,NE,9.2,-,N/A,,Mostly Cloudy,40,2013-07-24 20:15:00
3:35 PM,74.5,52.0,45,30.04,10.0,NE,5.8,9.2,N/A,,Scattered Clouds,50,2013-07-24 20:35:00
3:55 PM,73.8,51.4,45,30.03,10.0,North,4.6,-,N/A,,Scattered Clouds,350,2013-07-24 20:55:00
4:15 PM,75.0,51.8,44,30.03,10.0,Calm,Calm,-,N/A,,Scattered Clouds,0,2013-07-24 21:15:00
4:35 PM,74.3,52.2,46,30.03,10.0,NE,6.9,-,N/A,,Scattered Clouds,40,2013-07-24 21:35:00
4:55 PM,74.5,52.3,46,30.03,10.0,NNE,9.2,-,N/A,,Scattered Clouds,30,2013-07-24 21:55:00
5:15 PM,74.3,51.1,44,30.03,10.0,North,5.8,-,N/A,,Scattered Clouds,360,2013-07-24 22:15:00
5:35 PM,75.2,53.1,46,30.03,10.0,North,5.8,-,N/A,,Mostly Cloudy,10,2013-07-24 22:35:00
5:55 PM,73.6,51.6,46,30.03,10.0,North,5.8,-,N/A,,Mostly Cloudy,10,2013-07-24 22:55:00
6:15 PM,73.8,52.3,47,30.03,10.0,NNE,4.6,-,N/A,,Mostly Cloudy,20,2013-07-24 23:15:00
6:35 PM,72.7,51.6,47,30.04,10.0,North,4.6,-,N/A,,Scattered Clouds,350,2013-07-24 23:35:00
6:55 PM,72.7,52.2,48,30.04,10.0,North,5.8,-,N/A,,Clear,350,2013-07-24 23:55:00
7:15 PM,72.7,53.6,51,30.05,10.0,North,4.6,-,N/A,,Clear,10,2013-07-25 00:15:00
7:35 PM,71.6,53.1,52,30.04,10.0,North,4.6,-,N/A,,Clear,10,2013-07-25 00:35:00
7:55 PM,70.2,53.6,56,30.04,10.0,North,5.8,-,N/A,,Clear,10,2013-07-25 00:55:00
8:15 PM,69.1,54.1,59,30.04,10.0,NNE,3.5,-,N/A,,Clear,30,2013-07-25 01:15:00
8:35 PM,68.4,54.9,62,30.04,10.0,NNE,3.5,-,N/A,,Clear,30,2013-07-25 01:35:00
8:55 PM,66.4,55.0,67,30.04,10.0,NE,3.5,-,N/A,,Clear,50,2013-07-25 01:55:00
9:15 PM,65.8,55.4,69,30.04,10.0,NE,3.5,-,N/A,,Clear,50,2013-07-25 02:15:00
9:35 PM,65.1,55.4,71,30.04,10.0,NE,4.6,-,N/A,,Clear,50,2013-07-25 02:35:00
9:55 PM,65.7,54.9,68,30.05,10.0,Calm,Calm,-,N/A,,Clear,0,2013-07-25 02:55:00
10:15 PM,64.4,54.5,70,30.05,10.0,Calm,Calm,-,N/A,,Clear,0,2013-07-25 03:15:00
10:35 PM,63.5,54.3,72,30.06,10.0,Calm,Calm,-,N/A,,Clear,0,2013-07-25 03:35:00
10:55 PM,63.9,53.8,70,30.06,10.0,ESE,5.8,-,N/A,,Clear,110,2013-07-25 03:55:00
11:15 PM,63.5,52.7,68,30.07,10.0,ESE,5.8,-,N/A,,Clear,110,2013-07-25 04:15:00
11:35 PM,62.2,52.2,70,30.07,10.0,East,3.5,-,N/A,,Clear,100,2013-07-25 04:35:00
11:55 PM,61.7,52.0,70,30.07,10.0,Calm,Calm,-,N/A,,Clear,0,2013-07-25 04:55:00